Time,TemperatureF,DewpointF,PressureIn,WindDirection,WindDirectionDegrees,WindSpeedMPH,WindSpeedGustMPH,Humidity,HourlyPrecipIn,Conditions,Clouds,dailyrainin,SoftwareType,DateUTC
2013-06-06 00:10:00,55.8,54.1,28.67,North,0,2.0,0.0,94,0.00,,,-99.99,FreeWX-Wi 1.01,2013-06-06 05:10:00,
2013-06-06 01:41:00,56.7,55.2,28.67,NNW,347,2.0,0.0,95,0.00,,,-99.99,FreeWX-Wi 1.01,2013-06-06 06:41:00,
2013-06-06 01:56:00,56.8,55.8,28.64,NNW,347,2.0,0.0,96,0.00,,,-99.99,FreeWX-Wi 1.01,2013-06-06 06:56:00,
2013-06-06 05:20:00,54.7,52.2,28.67,NNW,347,2.0,0.0,91,0.00,,,-99.99,FreeWX-Wi 1.01,2013-06-06 10:20:00,
2013-06-06 05:56:00,54.1,51.6,28.67,NNW,344,2.0,7.2,91,0.00,,,-99.99,FreeWX-Wi 1.01,2013-06-06 10:56:00,
2013-06-06 06:36:00,54.5,52.2,28.67,NNW,344,2.0,0.0,92,0.00,,,-99.99,FreeWX-Wi 1.01,2013-06-06 11:36:00,
2013-06-06 06:52:00,55.0,52.2,28.67,NNW,344,2.0,4.9,90,0.00,,,-99.99,FreeWX-Wi 1.01,2013-06-06 11:52:00,
2013-06-06 06:57:00,55.2,52.0,28.67,NNW,344,2.0,0.0,89,0.00,,,-99.99,FreeWX-Wi 1.01,2013-06-06 11:57:00,
2013-06-06 07:02:00,55.4,51.6,28.67,NNW,344,2.0,0.0,87,0.00,,,-99.99,FreeWX-Wi 1.01,2013-06-06 12:02:00,
2013-06-06 07:12:00,55.6,51.4,28.67,NNW,344,2.0,0.0,86,0.00,,,-99.99,FreeWX-Wi 1.01,2013-06-06 12:12:00,
2013-06-06 07:22:00,55.8,51.1,28.67,NNW,344,2.0,0.0,84,0.00,,,-99.99,FreeWX-Wi 1.01,2013-06-06 12:22:00,
2013-06-06 07:27:00,55.8,50.4,28.67,NNW,344,2.0,0.0,82,0.00,,,-99.99,FreeWX-Wi 1.01,2013-06-06 12:27:00,
2013-06-06 07:32:00,55.8,50.7,28.67,NNW,344,2.0,0.0,83,0.00,,,-99.99,FreeWX-Wi 1.01,2013-06-06 12:32:00,
2013-06-06 07:37:00,56.1,50.7,28.67,NNW,343,2.0,3.6,82,0.00,,,-99.99,FreeWX-Wi 1.01,2013-06-06 12:37:00,
2013-06-06 07:42:00,56.3,50.5,28.67,NNW,343,2.0,0.0,81,0.00,,,-99.99,FreeWX-Wi 1.01,2013-06-06 12:42:00,
2013-06-06 07:48:00,56.5,50.0,28.67,NNW,343,2.0,5.4,79,0.00,,,-99.99,FreeWX-Wi 1.01,2013-06-06 12:48:00,
2013-06-06 07:53:00,56.5,49.6,28.67,NNW,342,2.0,5.4,78,0.00,,,-99.99,FreeWX-Wi 1.01,2013-06-06 12:53:00,
2013-06-06 07:58:00,56.7,49.1,28.67,NNW,342,2.0,0.0,76,0.00,,,-99.99,FreeWX-Wi 1.01,2013-06-06 12:58:00,
2013-06-06 08:03:00,56.7,49.5,28.67,NNW,342,2.0,3.6,77,0.00,,,-99.99,FreeWX-Wi 1.01,2013-06-06 13:03:00,
2013-06-06 08:08:00,56.8,49.3,28.67,NNW,341,2.0,6.3,76,0.00,,,-99.99,FreeWX-Wi 1.01,2013-06-06 13:08:00,
2013-06-06 08:13:00,56.7,48.7,28.67,NNW,338,2.0,8.7,75,0.00,,,-99.99,FreeWX-Wi 1.01,2013-06-06 13:13:00,
2013-06-06 08:18:00,56.8,49.6,28.67,NNW,335,2.0,5.8,77,0.00,,,-99.99,FreeWX-Wi 1.01,2013-06-06 13:18:00,
2013-06-06 08:23:00,57.2,48.9,28.67,NNW,335,2.0,5.8,74,0.00,,,-99.99,FreeWX-Wi 1.01,2013-06-06 13:23:00,
2013-06-06 08:28:00,57.2,48.6,28.67,NNW,336,2.0,3.1,73,0.00,,,-99.99,FreeWX-Wi 1.01,2013-06-06 13:28:00,
2013-06-06 08:33:00,57.4,48.0,28.67,NNW,337,2.0,7.2,71,0.00,,,-99.99,FreeWX-Wi 1.01,2013-06-06 13:33:00,
2013-06-06 08:38:00,57.6,48.2,28.67,NNW,337,2.0,4.9,71,0.00,,,-99.99,FreeWX-Wi 1.01,2013-06-06 13:38:00,
2013-06-06 08:43:00,57.6,47.8,28.67,NNW,338,2.0,4.9,70,0.00,,,-99.99,FreeWX-Wi 1.01,2013-06-06 13:43:00,
2013-06-06 08:48:00,57.6,46.8,28.67,NNW,338,2.0,0.0,67,0.00,,,-99.99,FreeWX-Wi 1.01,2013-06-06 13:48:00,
2013-06-06 08:53:00,57.7,48.7,28.67,NNW,339,2.0,6.3,72,0.00,,,-99.99,FreeWX-Wi 1.01,2013-06-06 13:53:00,
2013-06-06 08:58:00,57.7,48.0,28.67,NNW,341,3.0,4.0,70,0.00,,,-99.99,FreeWX-Wi 1.01,2013-06-06 13:58:00,
2013-06-06 09:03:00,57.6,47.1,28.67,NNW,341,3.0,0.0,68,0.00,,,-99.99,FreeWX-Wi 1.01,2013-06-06 14:03:00,
2013-06-06 09:09:00,57.6,47.5,28.67,NNW,342,3.0,6.3,69,0.00,,,-99.99,FreeWX-Wi 1.01,2013-06-06 14:09:00,
2013-06-06 09:14:00,57.7,48.0,28.67,NNW,342,3.0,0.0,70,0.00,,,-99.99,FreeWX-Wi 1.01,2013-06-06 14:14:00,
2013-06-06 09:19:00,57.6,47.5,28.70,NNW,342,3.0,0.0,69,0.00,,,-99.99,FreeWX-Wi 1.01,2013-06-06 14:19:00,
2013-06-06 09:24:00,57.9,48.6,28.70,NNW,343,3.0,4.0,71,0.00,,,-99.99,FreeWX-Wi 1.01,2013-06-06 14:24:00,
2013-06-06 09:29:00,57.9,46.9,28.70,NNW,343,3.0,0.0,67,0.00,,,-99.99,FreeWX-Wi 1.01,2013-06-06 14:29:00,
2013-06-06 09:34:00,58.3,47.8,28.70,NNW,343,3.0,0.0,68,0.00,,,-99.99,FreeWX-Wi 1.01,2013-06-06 14:34:00,
2013-06-06 09:39:00,58.5,48.4,28.70,NNW,343,3.0,0.0,69,0.00,,,-99.99,FreeWX-Wi 1.01,2013-06-06 14:39:00,
2013-06-06 09:44:00,58.5,47.1,28.70,NNW,343,3.0,0.0,66,0.00,,,-99.99,FreeWX-Wi 1.01,2013-06-06 14:44:00,
2013-06-06 09:49:00,58.5,47.5,28.70,NNW,344,3.0,3.0,67,0.00,,,-99.99,FreeWX-Wi 1.01,2013-06-06 14:49:00,
2013-06-06 09:54:00,57.9,46.2,28.70,NNW,344,3.0,0.0,65,0.00,,,-99.99,FreeWX-Wi 1.01,2013-06-06 14:54:00,
2013-06-06 10:00:00,57.6,46.2,28.70,NNW,344,3.0,0.0,66,0.00,,,-99.99,FreeWX-Wi 1.01,2013-06-06 15:00:00,
2013-06-06 10:05:00,57.4,47.3,28.70,NNW,344,3.0,3.1,69,0.00,,,-99.99,FreeWX-Wi 1.01,2013-06-06 15:05:00,
2013-06-06 10:10:00,57.2,47.5,28.70,NNW,344,3.0,0.0,70,0.00,,,-99.99,FreeWX-Wi 1.01,2013-06-06 15:10:00,
2013-06-06 10:15:00,57.0,48.4,28.70,NNW,344,3.0,0.0,73,0.00,,,-99.99,FreeWX-Wi 1.01,2013-06-06 15:15:00,
2013-06-06 10:20:00,57.0,48.4,28.70,NNW,344,3.0,0.0,73,0.00,,,-99.99,FreeWX-Wi 1.01,2013-06-06 15:20:00,
2013-06-06 10:25:00,57.0,48.7,28.70,NNW,344,3.0,0.0,74,0.00,,,-99.99,FreeWX-Wi 1.01,2013-06-06 15:25:00,
2013-06-06 10:30:00,57.0,48.7,28.70,NNW,344,3.0,0.0,74,0.00,,,-99.99,FreeWX-Wi 1.01,2013-06-06 15:30:00,
2013-06-06 10:35:00,57.0,48.7,28.70,NNW,344,3.0,0.0,74,0.00,,,-99.99,FreeWX-Wi 1.01,2013-06-06 15:35:00,
2013-06-06 10:40:00,57.2,48.9,28.70,NNW,344,3.0,0.0,74,0.00,,,-99.99,FreeWX-Wi 1.01,2013-06-06 15:40:00,
2013-06-06 10:45:00,57.2,48.9,28.70,NNW,344,3.0,0.0,74,0.00,,,-99.99,FreeWX-Wi 1.01,2013-06-06 15:45:00,
2013-06-06 10:50:00,57.4,48.7,28.70,NNW,344,3.0,0.0,73,0.00,,,-99.99,FreeWX-Wi 1.01,2013-06-06 15:50:00,
2013-06-06 10:55:00,57.0,48.4,28.70,NNW,344,3.0,0.0,73,0.00,,,-99.99,FreeWX-Wi 1.01,2013-06-06 15:55:00,
2013-06-06 11:06:00,56.8,48.6,28.70,NNW,344,3.0,0.0,74,0.00,,,-99.99,FreeWX-Wi 1.01,2013-06-06 16:06:00,
2013-06-06 11:11:00,56.8,48.9,28.70,NNW,344,3.0,0.0,75,0.00,,,-99.99,FreeWX-Wi 1.01,2013-06-06 16:11:00,
2013-06-06 11:16:00,56.8,48.6,28.70,NNW,344,3.0,0.0,74,0.00,,,-99.99,FreeWX-Wi 1.01,2013-06-06 16:16:00,
2013-06-06 11:21:00,57.2,48.6,28.70,NNW,345,3.0,3.6,73,0.00,,,-99.99,FreeWX-Wi 1.01,2013-06-06 16:21:00,
2013-06-06 11:31:00,57.2,47.1,28.70,NNW,345,3.0,0.0,69,0.00,,,-99.99,FreeWX-Wi 1.01,2013-06-06 16:31:00,
2013-06-06 11:36:00,57.2,47.8,28.70,NNW,345,3.0,0.0,71,0.00,,,-99.99,FreeWX-Wi 1.01,2013-06-06 16:36:00,
2013-06-06 11:41:00,57.0,48.0,28.70,NNW,345,3.0,0.0,72,0.00,,,-99.99,FreeWX-Wi 1.01,2013-06-06 16:41:00,
2013-06-06 11:47:00,57.2,47.5,28.70,NNW,345,3.0,0.0,70,0.00,,,-99.99,FreeWX-Wi 1.01,2013-06-06 16:47:00,
2013-06-06 11:52:00,57.4,48.0,28.70,NNW,345,3.0,0.0,71,0.00,,,-99.99,FreeWX-Wi 1.01,2013-06-06 16:52:00,
2013-06-06 11:57:00,57.6,47.5,28.70,NNW,345,3.0,0.0,69,0.00,,,-99.99,FreeWX-Wi 1.01,2013-06-06 16:57:00,
2013-06-06 12:02:00,57.6,47.8,28.70,NNW,345,3.0,0.0,70,0.00,,,-99.99,FreeWX-Wi 1.01,2013-06-06 17:02:00,
2013-06-06 12:07:00,57.6,48.2,28.70,NNW,345,3.0,0.0,71,0.00,,,-99.99,FreeWX-Wi 1.01,2013-06-06 17:07:00,
2013-06-06 12:12:00,57.6,48.6,28.70,NNW,345,3.0,0.0,72,0.00,,,-99.99,FreeWX-Wi 1.01,2013-06-06 17:12:00,
2013-06-06 12:17:00,57.6,48.2,28.70,NNW,345,3.0,0.0,71,0.00,,,-99.99,FreeWX-Wi 1.01,2013-06-06 17:17:00,
2013-06-06 12:22:00,57.7,48.0,28.70,NNW,345,3.0,0.0,70,0.00,,,-99.99,FreeWX-Wi 1.01,2013-06-06 17:22:00,
2013-06-06 12:27:00,57.7,48.0,28.70,NNW,345,3.0,0.0,70,0.00,,,-99.99,FreeWX-Wi 1.01,2013-06-06 17:27:00,
2013-06-06 12:32:00,57.9,48.2,28.70,NNW,345,3.0,0.0,70,0.00,,,-99.99,FreeWX-Wi 1.01,2013-06-06 17:32:00,
2013-06-06 12:38:00,58.3,48.6,28.70,NNW,345,3.0,0.0,70,0.00,,,-99.99,FreeWX-Wi 1.01,2013-06-06 17:38:00,
2013-06-06 12:43:00,58.8,48.7,28.70,NNW,345,3.0,0.0,69,0.00,,,-99.99,FreeWX-Wi 1.01,2013-06-06 17:43:00,
2013-06-06 12:48:00,59.2,48.6,28.70,NNW,345,3.0,0.0,68,0.00,,,-99.99,FreeWX-Wi 1.01,2013-06-06 17:48:00,
2013-06-06 12:53:00,59.4,47.7,28.70,NNW,345,3.0,0.0,65,0.00,,,-99.99,FreeWX-Wi 1.01,2013-06-06 17:53:00,
2013-06-06 12:58:00,59.4,48.0,28.70,NNW,345,3.0,3.6,66,0.00,,,-99.99,FreeWX-Wi 1.01,2013-06-06 17:58:00,
2013-06-06 13:03:00,59.0,47.3,28.70,NNW,346,3.0,4.0,65,0.00,,,-99.99,FreeWX-Wi 1.01,2013-06-06 18:03:00,
2013-06-06 13:08:00,58.8,47.8,28.70,NNW,346,3.0,0.0,67,0.00,,,-99.99,FreeWX-Wi 1.01,2013-06-06 18:08:00,
2013-06-06 13:13:00,58.8,47.5,28.70,NNW,346,3.0,0.0,66,0.00,,,-99.99,FreeWX-Wi 1.01,2013-06-06 18:13:00,
2013-06-06 13:18:00,58.6,47.7,28.70,NNW,346,3.0,0.0,67,0.00,,,-99.99,FreeWX-Wi 1.01,2013-06-06 18:18:00,
2013-06-06 13:23:00,58.3,47.3,28.70,NNW,346,3.0,0.0,67,0.00,,,-99.99,FreeWX-Wi 1.01,2013-06-06 18:23:00,
2013-06-06 13:28:00,58.5,49.1,28.70,NNW,346,3.0,0.0,71,0.00,,,-99.99,FreeWX-Wi 1.01,2013-06-06 18:28:00,
2013-06-06 13:33:00,57.9,48.6,28.70,NNW,346,3.0,0.0,71,0.00,,,-99.99,FreeWX-Wi 1.01,2013-06-06 18:33:00,
2013-06-06 13:38:00,57.9,49.3,28.70,NNW,346,3.0,3.1,73,0.00,,,-99.99,FreeWX-Wi 1.01,2013-06-06 18:38:00,
2013-06-06 13:43:00,57.9,48.9,28.70,NNW,346,3.0,0.0,72,0.00,,,-99.99,FreeWX-Wi 1.01,2013-06-06 18:43:00,
2013-06-06 13:49:00,58.1,48.7,28.70,NNW,346,3.0,0.0,71,0.00,,,-99.99,FreeWX-Wi 1.01,2013-06-06 18:49:00,
2013-06-06 13:54:00,57.9,48.9,28.70,NNW,346,3.0,0.0,72,0.00,,,-99.99,FreeWX-Wi 1.01,2013-06-06 18:54:00,
2013-06-06 13:59:00,58.1,49.5,28.70,NNW,346,3.0,0.0,73,0.00,,,-99.99,FreeWX-Wi 1.01,2013-06-06 18:59:00,
2013-06-06 14:04:00,57.9,48.2,28.70,NNW,346,3.0,0.0,70,0.00,,,-99.99,FreeWX-Wi 1.01,2013-06-06 19:04:00,
2013-06-06 14:09:00,57.7,49.1,28.70,NNW,346,3.0,0.0,73,0.00,,,-99.99,FreeWX-Wi 1.01,2013-06-06 19:09:00,
2013-06-06 14:14:00,57.4,48.4,28.70,NNW,346,3.0,0.0,72,0.00,,,-99.99,FreeWX-Wi 1.01,2013-06-06 19:14:00,
2013-06-06 14:19:00,57.2,49.3,28.70,NNW,346,3.0,0.0,75,0.00,,,-99.99,FreeWX-Wi 1.01,2013-06-06 19:19:00,
2013-06-06 14:24:00,57.2,50.4,28.70,NNW,346,3.0,0.0,78,0.00,,,-99.99,FreeWX-Wi 1.01,2013-06-06 19:24:00,
2013-06-06 14:29:00,57.0,50.5,28.70,NNW,346,3.0,0.0,79,0.00,,,-99.99,FreeWX-Wi 1.01,2013-06-06 19:29:00,
2013-06-06 14:34:00,56.7,50.5,28.70,NNW,346,3.0,0.0,80,0.00,,,-99.99,FreeWX-Wi 1.01,2013-06-06 19:34:00,
2013-06-06 14:39:00,56.7,50.5,28.70,NNW,346,3.0,0.0,80,0.00,,,-99.99,FreeWX-Wi 1.01,2013-06-06 19:39:00,
2013-06-06 14:44:00,57.0,51.3,28.70,NNW,346,3.0,0.0,81,0.00,,,-99.99,FreeWX-Wi 1.01,2013-06-06 19:44:00,
2013-06-06 14:49:00,57.2,50.7,28.70,NNW,346,3.0,0.0,79,0.00,,,-99.99,FreeWX-Wi 1.01,2013-06-06 19:49:00,
2013-06-06 14:54:00,57.2,49.6,28.70,NNW,346,3.0,0.0,76,0.00,,,-99.99,FreeWX-Wi 1.01,2013-06-06 19:54:00,
2013-06-06 14:59:00,57.7,50.2,28.70,NNW,346,3.0,0.0,76,0.00,,,-99.99,FreeWX-Wi 1.01,2013-06-06 19:59:00,
2013-06-06 15:05:00,58.1,49.5,28.70,NNW,346,3.0,0.0,73,0.00,,,-99.99,FreeWX-Wi 1.01,2013-06-06 20:05:00,
2013-06-06 15:10:00,58.6,49.6,28.70,NNW,346,3.0,0.0,72,0.00,,,-99.99,FreeWX-Wi 1.01,2013-06-06 20:10:00,
2013-06-06 15:15:00,58.8,49.1,28.70,NNW,346,3.0,0.0,70,0.00,,,-99.99,FreeWX-Wi 1.01,2013-06-06 20:15:00,
2013-06-06 15:20:00,59.2,47.8,28.70,NNW,346,3.0,0.0,66,0.00,,,-99.99,FreeWX-Wi 1.01,2013-06-06 20:20:00,
2013-06-06 15:25:00,59.7,47.5,28.70,NNW,346,3.0,0.0,64,0.00,,,-99.99,FreeWX-Wi 1.01,2013-06-06 20:25:00,
2013-06-06 15:30:00,60.3,48.0,28.70,NNW,346,3.0,0.0,64,0.00,,,-99.99,FreeWX-Wi 1.01,2013-06-06 20:30:00,
2013-06-06 15:35:00,60.4,47.3,28.70,NNW,346,3.0,0.0,62,0.00,,,-99.99,FreeWX-Wi 1.01,2013-06-06 20:35:00,
2013-06-06 15:40:00,60.4,47.3,28.70,NNW,347,3.0,5.4,62,0.00,,,-99.99,FreeWX-Wi 1.01,2013-06-06 20:40:00,
2013-06-06 15:45:00,61.0,47.5,28.70,NNW,347,3.0,0.0,61,0.00,,,-99.99,FreeWX-Wi 1.01,2013-06-06 20:45:00,
2013-06-06 15:50:00,61.3,48.2,28.70,NNW,347,3.0,3.0,62,0.00,,,-99.99,FreeWX-Wi 1.01,2013-06-06 20:50:00,
2013-06-06 15:55:00,61.3,46.0,28.70,NNW,347,3.0,5.4,57,0.00,,,-99.99,FreeWX-Wi 1.01,2013-06-06 20:55:00,
2013-06-06 16:00:00,61.5,46.6,28.70,NNW,347,3.0,0.0,58,0.00,,,-99.99,FreeWX-Wi 1.01,2013-06-06 21:00:00,
2013-06-06 16:05:00,61.5,45.1,28.70,NNW,347,3.0,0.0,55,0.00,,,-99.99,FreeWX-Wi 1.01,2013-06-06 21:05:00,
2013-06-06 16:11:00,61.3,46.9,28.70,NNW,347,3.0,0.0,59,0.00,,,-99.99,FreeWX-Wi 1.01,2013-06-06 21:11:00,
2013-06-06 16:16:00,61.7,47.7,28.70,NNW,347,3.0,0.0,60,0.00,,,-99.99,FreeWX-Wi 1.01,2013-06-06 21:16:00,
2013-06-06 16:21:00,61.9,46.0,28.70,NNW,347,3.0,0.0,56,0.00,,,-99.99,FreeWX-Wi 1.01,2013-06-06 21:21:00,
2013-06-06 16:26:00,61.9,46.0,28.70,NNW,347,3.0,0.0,56,0.00,,,-99.99,FreeWX-Wi 1.01,2013-06-06 21:26:00,
2013-06-06 16:31:00,61.7,46.8,28.70,NNW,347,3.0,0.0,58,0.00,,,-99.99,FreeWX-Wi 1.01,2013-06-06 21:31:00,
2013-06-06 16:36:00,61.5,44.8,28.70,NNW,347,3.0,0.0,54,0.00,,,-99.99,FreeWX-Wi 1.01,2013-06-06 21:36:00,
2013-06-06 16:41:00,61.7,46.8,28.70,NNW,347,3.0,0.0,58,0.00,,,-99.99,FreeWX-Wi 1.01,2013-06-06 21:41:00,
2013-06-06 16:46:00,61.0,46.0,28.70,NNW,347,3.0,0.0,58,0.00,,,-99.99,FreeWX-Wi 1.01,2013-06-06 21:46:00,
2013-06-06 16:52:00,61.3,48.6,28.70,NNW,347,3.0,0.0,63,0.00,,,-99.99,FreeWX-Wi 1.01,2013-06-06 21:52:00,
2013-06-06 16:57:00,61.0,46.6,28.70,NNW,347,3.0,0.0,59,0.00,,,-99.99,FreeWX-Wi 1.01,2013-06-06 21:57:00,
2013-06-06 17:02:00,60.8,48.6,28.70,NNW,347,3.0,0.0,64,0.00,,,-99.99,FreeWX-Wi 1.01,2013-06-06 22:02:00,
2013-06-06 17:07:00,60.1,47.5,28.70,NNW,347,3.0,0.0,63,0.00,,,-99.99,FreeWX-Wi 1.01,2013-06-06 22:07:00,
2013-06-06 17:12:00,59.7,48.0,28.70,NNW,347,3.0,0.0,65,0.00,,,-99.99,FreeWX-Wi 1.01,2013-06-06 22:12:00,
2013-06-06 17:17:00,59.5,48.6,28.70,NNW,347,3.0,0.0,67,0.00,,,-99.99,FreeWX-Wi 1.01,2013-06-06 22:17:00,
2013-06-06 17:22:00,59.7,48.4,28.70,NNW,347,3.0,0.0,66,0.00,,,-99.99,FreeWX-Wi 1.01,2013-06-06 22:22:00,
2013-06-06 17:27:00,59.2,47.5,28.70,NNW,347,3.0,5.4,65,0.00,,,-99.99,FreeWX-Wi 1.01,2013-06-06 22:27:00,
2013-06-06 17:33:00,59.0,48.4,28.70,NNW,347,3.0,0.0,68,0.00,,,-99.99,FreeWX-Wi 1.01,2013-06-06 22:33:00,
2013-06-06 17:38:00,58.5,48.4,28.70,NNW,347,3.0,0.0,69,0.00,,,-99.99,FreeWX-Wi 1.01,2013-06-06 22:38:00,
2013-06-06 17:43:00,58.5,48.7,28.70,NNW,347,3.0,0.0,70,0.00,,,-99.99,FreeWX-Wi 1.01,2013-06-06 22:43:00,
2013-06-06 17:48:00,58.5,48.4,28.70,NNW,347,3.0,0.0,69,0.00,,,-99.99,FreeWX-Wi 1.01,2013-06-06 22:48:00,
2013-06-06 17:53:00,58.6,48.9,28.70,NNW,347,3.0,0.0,70,0.00,,,-99.99,FreeWX-Wi 1.01,2013-06-06 22:53:00,
2013-06-06 17:58:00,58.8,48.2,28.70,NNW,347,3.0,0.0,68,0.00,,,-99.99,FreeWX-Wi 1.01,2013-06-06 22:58:00,
2013-06-06 18:03:00,59.0,48.9,28.70,NNW,347,3.0,0.0,69,0.00,,,-99.99,FreeWX-Wi 1.01,2013-06-06 23:03:00,
2013-06-06 18:08:00,59.0,47.7,28.70,NNW,347,3.0,0.0,66,0.00,,,-99.99,FreeWX-Wi 1.01,2013-06-06 23:08:00,
2013-06-06 18:13:00,59.4,48.4,28.70,NNW,347,3.0,0.0,67,0.00,,,-99.99,FreeWX-Wi 1.01,2013-06-06 23:13:00,
2013-06-06 18:18:00,59.2,48.6,28.70,NNW,348,3.0,3.6,68,0.00,,,-99.99,FreeWX-Wi 1.01,2013-06-06 23:18:00,
2013-06-06 18:23:00,58.8,49.5,28.70,NNW,348,3.0,0.0,71,0.00,,,-99.99,FreeWX-Wi 1.01,2013-06-06 23:23:00,
2013-06-06 18:28:00,58.8,49.1,28.70,NNW,348,3.0,0.0,70,0.00,,,-99.99,FreeWX-Wi 1.01,2013-06-06 23:28:00,
2013-06-06 18:33:00,58.8,49.8,28.70,NNW,348,3.0,0.0,72,0.00,,,-99.99,FreeWX-Wi 1.01,2013-06-06 23:33:00,
2013-06-06 18:38:00,60.6,48.4,28.70,NNW,348,3.0,0.0,64,0.00,,,-99.99,FreeWX-Wi 1.01,2013-06-06 23:38:00,
2013-06-06 18:44:00,61.9,46.0,28.70,NNW,348,3.0,0.0,56,0.00,,,-99.99,FreeWX-Wi 1.01,2013-06-06 23:44:00,
2013-06-06 18:49:00,63.0,46.0,28.70,NNW,348,3.0,6.3,54,0.00,,,-99.99,FreeWX-Wi 1.01,2013-06-06 23:49:00,
2013-06-06 18:54:00,63.0,46.0,28.70,NNW,348,3.0,0.0,54,0.00,,,-99.99,FreeWX-Wi 1.01,2013-06-06 23:54:00,
2013-06-06 18:59:00,61.2,47.7,28.70,NNW,348,3.0,6.3,61,0.00,,,-99.99,FreeWX-Wi 1.01,2013-06-06 23:59:00,
2013-06-06 19:04:00,59.9,47.7,28.73,North,351,4.0,4.0,64,0.00,,,-99.99,FreeWX-Wi 1.01,2013-06-07 00:04:00,
2013-06-06 19:09:00,59.5,48.6,28.73,North,351,4.0,0.0,67,0.00,,,-99.99,FreeWX-Wi 1.01,2013-06-07 00:09:00,
2013-06-06 19:14:00,59.2,47.8,28.73,North,351,4.0,0.0,66,0.00,,,-99.99,FreeWX-Wi 1.01,2013-06-07 00:14:00,
2013-06-06 19:19:00,58.8,48.7,28.73,North,351,4.0,4.0,69,0.00,,,-99.99,FreeWX-Wi 1.01,2013-06-07 00:19:00,
2013-06-06 19:24:00,58.1,48.7,28.73,North,351,4.0,0.0,71,0.00,,,-99.99,FreeWX-Wi 1.01,2013-06-07 00:24:00,
2013-06-06 19:29:00,57.7,48.7,28.73,North,351,4.0,0.0,72,0.00,,,-99.99,FreeWX-Wi 1.01,2013-06-07 00:29:00,
2013-06-06 19:34:00,57.6,48.9,28.70,North,351,4.0,0.0,73,0.00,,,-99.99,FreeWX-Wi 1.01,2013-06-07 00:34:00,
2013-06-06 19:39:00,57.4,49.1,28.70,North,351,4.0,0.0,74,0.00,,,-99.99,FreeWX-Wi 1.01,2013-06-07 00:39:00,
2013-06-06 19:44:00,57.4,49.1,28.70,North,351,4.0,4.0,74,0.00,,,-99.99,FreeWX-Wi 1.01,2013-06-07 00:44:00,
2013-06-06 19:49:00,57.2,49.3,28.70,North,351,4.0,0.0,75,0.00,,,-99.99,FreeWX-Wi 1.01,2013-06-07 00:49:00,
2013-06-06 19:54:00,57.2,49.3,28.70,North,351,4.0,0.0,75,0.00,,,-99.99,FreeWX-Wi 1.01,2013-06-07 00:54:00,
2013-06-06 19:59:00,57.0,49.5,28.70,North,351,4.0,0.0,76,0.00,,,-99.99,FreeWX-Wi 1.01,2013-06-07 00:59:00,
2013-06-06 20:05:00,57.0,49.5,28.70,North,351,4.0,0.0,76,0.00,,,-99.99,FreeWX-Wi 1.01,2013-06-07 01:05:00,
2013-06-06 20:10:00,56.8,49.6,28.70,North,351,4.0,0.0,77,0.00,,,-99.99,FreeWX-Wi 1.01,2013-06-07 01:10:00,
2013-06-06 20:15:00,56.8,50.0,28.70,North,351,4.0,0.0,78,0.00,,,-99.99,FreeWX-Wi 1.01,2013-06-07 01:15:00,
2013-06-06 20:20:00,56.8,50.4,28.70,North,353,4.0,6.3,79,0.00,,,-99.99,FreeWX-Wi 1.01,2013-06-07 01:20:00,
2013-06-06 20:25:00,56.7,50.2,28.70,North,355,4.0,4.0,79,0.00,,,-99.99,FreeWX-Wi 1.01,2013-06-07 01:25:00,
2013-06-06 20:30:00,56.7,50.2,28.70,North,354,4.0,6.3,79,0.00,,,-99.99,FreeWX-Wi 1.01,2013-06-07 01:30:00,
2013-06-06 20:35:00,56.7,50.2,28.70,North,353,4.0,4.0,79,0.00,,,-99.99,FreeWX-Wi 1.01,2013-06-07 01:35:00,
2013-06-06 20:40:00,56.5,50.0,28.70,North,352,4.0,5.8,79,0.00,,,-99.99,FreeWX-Wi 1.01,2013-06-07 01:40:00,
2013-06-06 20:45:00,56.5,50.4,28.70,North,351,4.0,8.1,80,0.00,,,-99.99,FreeWX-Wi 1.01,2013-06-07 01:45:00,
2013-06-06 20:50:00,56.5,50.7,28.70,North,351,4.0,4.0,81,0.00,,,-99.99,FreeWX-Wi 1.01,2013-06-07 01:50:00,
2013-06-06 20:55:00,56.5,50.7,28.70,North,351,4.0,4.0,81,0.00,,,-99.99,FreeWX-Wi 1.01,2013-06-07 01:55:00,
2013-06-06 21:00:00,56.5,50.7,28.70,North,351,4.0,0.0,81,0.00,,,-99.99,FreeWX-Wi 1.01,2013-06-07 02:00:00,
2013-06-06 21:05:00,56.3,50.5,28.70,North,351,4.0,5.4,81,0.00,,,-99.99,FreeWX-Wi 1.01,2013-06-07 02:05:00,
2013-06-06 21:10:00,56.3,50.9,28.70,North,351,4.0,0.0,82,0.00,,,-99.99,FreeWX-Wi 1.01,2013-06-07 02:10:00,
2013-06-06 21:15:00,56.1,51.1,28.73,North,351,4.0,0.0,83,0.00,,,-99.99,FreeWX-Wi 1.01,2013-06-07 02:15:00,
2013-06-06 21:21:00,56.1,51.1,28.73,North,351,4.0,0.0,83,0.00,,,-99.99,FreeWX-Wi 1.01,2013-06-07 02:21:00,
2013-06-06 21:26:00,56.1,51.3,28.73,North,350,4.0,4.0,84,0.00,,,-99.99,FreeWX-Wi 1.01,2013-06-07 02:26:00,
2013-06-06 21:31:00,56.1,51.3,28.73,North,350,4.0,0.0,84,0.00,,,-99.99,FreeWX-Wi 1.01,2013-06-07 02:31:00,
2013-06-06 21:36:00,56.1,51.1,28.73,North,350,4.0,0.0,83,0.00,,,-99.99,FreeWX-Wi 1.01,2013-06-07 02:36:00,
2013-06-06 21:41:00,56.3,50.9,28.73,North,350,4.0,0.0,82,0.00,,,-99.99,FreeWX-Wi 1.01,2013-06-07 02:41:00,
2013-06-06 21:46:00,56.3,50.2,28.73,North,350,4.0,0.0,80,0.00,,,-99.99,FreeWX-Wi 1.01,2013-06-07 02:46:00,
2013-06-06 21:51:00,56.1,50.0,28.73,North,350,4.0,0.0,80,0.00,,,-99.99,FreeWX-Wi 1.01,2013-06-07 02:51:00,
2013-06-06 21:56:00,56.1,50.0,28.73,North,350,4.0,0.0,80,0.00,,,-99.99,FreeWX-Wi 1.01,2013-06-07 02:56:00,
2013-06-06 22:02:00,55.9,49.8,28.73,North,350,4.0,0.0,80,0.00,,,-99.99,FreeWX-Wi 1.01,2013-06-07 03:02:00,
2013-06-06 22:07:00,55.9,50.5,28.73,North,350,4.0,8.3,82,0.00,,,-99.99,FreeWX-Wi 1.01,2013-06-07 03:07:00,
2013-06-06 22:12:00,55.9,50.2,28.73,North,351,4.0,9.2,81,0.00,,,-99.99,FreeWX-Wi 1.01,2013-06-07 03:12:00,
2013-06-06 22:17:00,55.9,50.5,28.73,North,351,4.0,8.1,82,0.00,,,-99.99,FreeWX-Wi 1.01,2013-06-07 03:17:00,
2013-06-06 22:22:00,55.8,50.4,28.73,North,352,4.0,5.8,82,0.00,,,-99.99,FreeWX-Wi 1.01,2013-06-07 03:22:00,
2013-06-06 22:27:00,55.8,50.4,28.73,North,352,4.0,5.8,82,0.00,,,-99.99,FreeWX-Wi 1.01,2013-06-07 03:27:00,
2013-06-06 22:32:00,55.4,50.0,28.73,North,352,4.0,4.9,82,0.00,,,-99.99,FreeWX-Wi 1.01,2013-06-07 03:32:00,
2013-06-06 22:37:00,55.2,50.2,28.73,North,352,4.0,9.6,83,0.00,,,-99.99,FreeWX-Wi 1.01,2013-06-07 03:37:00,
2013-06-06 22:43:00,55.0,49.3,28.73,North,355,4.0,10.1,81,0.00,,,-99.99,FreeWX-Wi 1.01,2013-06-07 03:43:00,
2013-06-06 22:48:00,55.2,49.1,28.73,North,356,4.0,8.1,80,0.00,,,-99.99,FreeWX-Wi 1.01,2013-06-07 03:48:00,
2013-06-06 22:53:00,55.0,48.9,28.73,North,358,4.0,8.3,80,0.00,,,-99.99,FreeWX-Wi 1.01,2013-06-07 03:53:00,
2013-06-06 22:58:00,55.0,49.3,28.73,North,359,5.0,10.1,81,0.00,,,-99.99,FreeWX-Wi 1.01,2013-06-07 03:58:00,
2013-06-06 23:03:00,55.0,50.0,28.73,North,4,5.0,8.7,83,0.00,,,-99.99,FreeWX-Wi 1.01,2013-06-07 04:03:00,
2013-06-06 23:08:00,54.9,50.2,28.73,North,7,5.0,7.6,84,0.00,,,-99.99,FreeWX-Wi 1.01,2013-06-07 04:08:00,
2013-06-06 23:13:00,55.0,50.4,28.73,North,11,5.0,7.6,84,0.00,,,-99.99,FreeWX-Wi 1.01,2013-06-07 04:13:00,
2013-06-06 23:18:00,54.9,50.2,28.73,NNE,15,5.0,8.3,84,0.00,,,-99.99,FreeWX-Wi 1.01,2013-06-07 04:18:00,
2013-06-06 23:23:00,54.9,50.2,28.73,NNE,17,5.0,5.8,84,0.00,,,-99.99,FreeWX-Wi 1.01,2013-06-07 04:23:00,
2013-06-06 23:28:00,54.9,50.2,28.73,NNE,19,5.0,6.7,84,0.00,,,-99.99,FreeWX-Wi 1.01,2013-06-07 04:28:00,
2013-06-06 23:33:00,54.7,50.2,28.73,NNE,19,5.0,5.8,85,0.00,,,-99.99,FreeWX-Wi 1.01,2013-06-07 04:33:00,
2013-06-06 23:38:00,54.7,50.2,28.73,NNE,19,5.0,5.4,85,0.00,,,-99.99,FreeWX-Wi 1.01,2013-06-07 04:38:00,
2013-06-06 23:43:00,54.7,50.2,28.73,NNE,18,5.0,5.4,85,0.00,,,-99.99,FreeWX-Wi 1.01,2013-06-07 04:43:00,
2013-06-06 23:48:00,54.7,50.0,28.73,NNE,18,5.0,6.3,84,0.00,,,-99.99,FreeWX-Wi 1.01,2013-06-07 04:48:00,
2013-06-06 23:54:00,54.7,50.2,28.73,NNE,18,5.0,6.3,85,0.00,,,-99.99,FreeWX-Wi 1.01,2013-06-07 04:54:00,
2013-06-06 23:59:00,54.7,50.2,28.73,NNE,18,5.0,6.3,85,0.00,,,-99.99,FreeWX-Wi 1.01,2013-06-07 04:59:00,